Hourly Weather Lugovoe

Today, 17 June, Thursday

Time Temperature Precipitation Wind Pressure Humidity
00:00 +19°C° 0 mm 2 mps 697 mmHg 39%
01:00 +19°C° 0 mm 2 mps 696 mmHg 40%
02:00 +18°C° 0 mm 2 mps 696 mmHg 41%
03:00 +18°C° 0 mm 2 mps 696 mmHg 42%
04:00 +18°C° 0 mm 2 mps 696 mmHg 43%
05:00 +18°C° 0 mm 2 mps 696 mmHg 43%
06:00 +21°C° 0.1 mm 2 mps 697 mmHg 39%
07:00 +24°C° 0.1 mm 1 mps 697 mmHg 36%
08:00 +26°C° 0.1 mm 1 mps 697 mmHg 32%
09:00 +27°C° 0 mm 2 mps 697 mmHg 30%
10:00 +29°C° 0 mm 2 mps 697 mmHg 28%
11:00 +30°C° 0 mm 3 mps 697 mmHg 26%
12:00 +30°C° 0.1 mm 3 mps 697 mmHg 25%
13:00 +31°C° 0.1 mm 3 mps 697 mmHg 24%
14:00 +31°C° 0.1 mm 3 mps 696 mmHg 23%
15:00 +32°C° 0.1 mm 4 mps 697 mmHg 27%
16:00 +30°C° 0.1 mm 4 mps 697 mmHg 31%
17:00 +29°C° 0.1 mm 5 mps 697 mmHg 35%
18:00 +27°C° 0 mm 5 mps 697 mmHg 38%
19:00 +25°C° 0 mm 4 mps 697 mmHg 41%
20:00 +23°C° 0 mm 4 mps 697 mmHg 45%
21:00 +22°C° 0 mm 3 mps 696 mmHg 45%
22:00 +21°C° 0 mm 3 mps 696 mmHg 44%
23:00 +21°C° 0 mm 3 mps 696 mmHg 44%

Tomorrow, 18 June, Friday

Time Temperature Precipitation Wind Pressure Humidity
00:00 +20°C° 0 mm 3 mps 696 mmHg 45%
01:00 +19°C° 0 mm 3 mps 696 mmHg 45%
02:00 +19°C° 0 mm 2 mps 696 mmHg 45%
03:00 +19°C° 0 mm 2 mps 696 mmHg 45%
04:00 +19°C° 0 mm 2 mps 696 mmHg 45%
05:00 +19°C° 0 mm 2 mps 696 mmHg 45%
06:00 +21°C° 0 mm 2 mps 696 mmHg 41%
07:00 +25°C° 0 mm 2 mps 696 mmHg 36%
08:00 +28°C° 0 mm 2 mps 697 mmHg 31%
09:00 +29°C° 0 mm 2 mps 696 mmHg 29%
10:00 +30°C° 0 mm 2 mps 696 mmHg 28%
11:00 +31°C° 0 mm 3 mps 696 mmHg 26%
12:00 +32°C° 0.1 mm 2 mps 696 mmHg 25%
13:00 +32°C° 0.1 mm 2 mps 696 mmHg 24%
14:00 +34°C° 0.1 mm 2 mps 696 mmHg 23%
15:00 +34°C° 0 mm 3 mps 696 mmHg 22%
16:00 +34°C° 0 mm 3 mps 696 mmHg 22%
17:00 +34°C° 0 mm 3 mps 696 mmHg 21%
18:00 +31°C° 0 mm 3 mps 696 mmHg 24%
19:00 +29°C° 0 mm 2 mps 696 mmHg 27%
20:00 +26°C° 0 mm 2 mps 696 mmHg 30%
21:00 +26°C° 0 mm 2 mps 696 mmHg 32%
22:00 +25°C° 0 mm 2 mps 696 mmHg 33%
23:00 +24°C° 0 mm 3 mps 696 mmHg 35%

Day after tomorrow, 19 June, Saturday

Time Temperature Precipitation Wind Pressure Humidity
00:00 +24°C° 0 mm 3 mps 695 mmHg 35%
01:00 +24°C° 0 mm 3 mps 695 mmHg 35%
02:00 +22°C° 0 mm 3 mps 695 mmHg 35%
03:00 +22°C° 0 mm 3 mps 695 mmHg 36%
04:00 +22°C° 0 mm 3 mps 695 mmHg 36%
05:00 +21°C° 0 mm 3 mps 695 mmHg 37%
06:00 +25°C° 0 mm 3 mps 695 mmHg 32%
07:00 +28°C° 0 mm 2 mps 696 mmHg 28%
08:00 +31°C° 0 mm 2 mps 696 mmHg 23%
09:00 +33°C° 0 mm 3 mps 696 mmHg 21%
10:00 +34°C° 0 mm 4 mps 696 mmHg 19%
11:00 +35°C° 0 mm 6 mps 696 mmHg 16%
12:00 +35°C° 0 mm 7 mps 695 mmHg 20%
13:00 +34°C° 0 mm 8 mps 695 mmHg 23%
14:00 +34°C° 0 mm 9 mps 695 mmHg 27%
15:00 +32°C° 0.5 mm 8 mps 696 mmHg 33%
16:00 +29°C° 0.5 mm 7 mps 696 mmHg 38%
17:00 +27°C° 0.5 mm 6 mps 696 mmHg 44%
18:00 +25°C° 1 mm 5 mps 697 mmHg 44%
19:00 +24°C° 1 mm 3 mps 698 mmHg 45%
20:00 +21°C° 1 mm 2 mps 699 mmHg 45%
21:00 +20°C° 0 mm 2 mps 699 mmHg 43%
22:00 +19°C° 0 mm 2 mps 699 mmHg 42%
23:00 +18°C° 0 mm 1 mps 699 mmHg 40%

20 June, Sunday

Time Temperature Precipitation Wind Pressure Humidity
00:00 +16°C° 0 mm 1 mps 698 mmHg 42%
01:00 +15°C° 0 mm 1 mps 698 mmHg 45%
02:00 +14°C° 0 mm 1 mps 698 mmHg 47%
03:00 +14°C° 0 mm 1 mps 698 mmHg 49%
04:00 +14°C° 0 mm 1 mps 698 mmHg 51%
05:00 +14°C° 0 mm 1 mps 698 mmHg 53%
06:00 +15°C° 0 mm 1 mps 699 mmHg 49%
07:00 +18°C° 0 mm 1 mps 699 mmHg 45%
08:00 +19°C° 0 mm 1 mps 699 mmHg 41%
09:00 +20°C° 0 mm 1 mps 699 mmHg 38%
10:00 +22°C° 0 mm 1 mps 699 mmHg 36%
11:00 +23°C° 0 mm 1 mps 699 mmHg 33%
12:00 +24°C° 0 mm 2 mps 699 mmHg 31%
13:00 +25°C° 0 mm 2 mps 699 mmHg 29%
14:00 +26°C° 0 mm 2 mps 698 mmHg 27%
15:00 +26°C° 0 mm 3 mps 698 mmHg 26%
16:00 +26°C° 0 mm 3 mps 698 mmHg 24%
17:00 +26°C° 0 mm 4 mps 698 mmHg 22%
18:00 +24°C° 0 mm 3 mps 698 mmHg 25%
19:00 +20°C° 0 mm 2 mps 698 mmHg 28%
20:00 +19°C° 0 mm 1 mps 698 mmHg 31%
21:00 +18°C° 0 mm 1 mps 698 mmHg 31%
22:00 +17°C° 0 mm 2 mps 699 mmHg 31%
23:00 +16°C° 0 mm 2 mps 699 mmHg 31%

21 June, Monday

Time Temperature Precipitation Wind Pressure Humidity
00:00 +16°C° 0 mm 2 mps 698 mmHg 36%
01:00 +15°C° 0 mm 2 mps 698 mmHg 41%
02:00 +14°C° 0 mm 1 mps 698 mmHg 45%
03:00 +14°C° 0 mm 1 mps 698 mmHg 47%
04:00 +14°C° 0 mm 1 mps 698 mmHg 49%
05:00 +14°C° 0 mm 1 mps 698 mmHg 50%
06:00 +16°C° 0 mm 1 mps 698 mmHg 47%
07:00 +19°C° 0 mm 1 mps 699 mmHg 43%
08:00 +21°C° 0 mm 1 mps 699 mmHg 40%
09:00 +21°C° 0 mm 2 mps 699 mmHg 38%
10:00 +24°C° 0 mm 2 mps 699 mmHg 35%
11:00 +25°C° 0 mm 2 mps 699 mmHg 33%
12:00 +26°C° 0 mm 2 mps 699 mmHg 32%
13:00 +27°C° 0 mm 3 mps 699 mmHg 30%
14:00 +28°C° 0 mm 3 mps 699 mmHg 28%
15:00 +28°C° 0 mm 4 mps 699 mmHg 28%
16:00 +28°C° 0 mm 4 mps 699 mmHg 29%
17:00 +28°C° 0 mm 4 mps 699 mmHg 29%
18:00 +26°C° 0 mm 3 mps 699 mmHg 34%
19:00 +24°C° 0 mm 2 mps 699 mmHg 38%
20:00 +21°C° 0 mm 1 mps 699 mmHg 43%
21:00 +21°C° 0 mm 1 mps 699 mmHg 45%
22:00 +19°C° 0 mm 2 mps 699 mmHg 47%
23:00 +18°C° 0 mm 2 mps 699 mmHg 48%

22 June, Tuesday

Time Temperature Precipitation Wind Pressure Humidity
00:00 +18°C° 0 mm 2 mps 699 mmHg 49%
01:00 +18°C° 0 mm 2 mps 699 mmHg 49%
02:00 +17°C° 0 mm 2 mps 698 mmHg 50%
03:00 +17°C° 0 mm 2 mps 699 mmHg 50%
04:00 +17°C° 0 mm 2 mps 699 mmHg 50%
05:00 +18°C° 0 mm 2 mps 699 mmHg 50%
06:00 +20°C° 0 mm 2 mps 699 mmHg 44%
07:00 +24°C° 0 mm 2 mps 700 mmHg 39%
08:00 +26°C° 0 mm 2 mps 700 mmHg 33%
09:00 +27°C° 0 mm 2 mps 700 mmHg 32%
10:00 +28°C° 0 mm 2 mps 700 mmHg 30%
11:00 +30°C° 0 mm 2 mps 700 mmHg 28%
12:00 +31°C° 0 mm 2 mps 700 mmHg 27%
13:00 +31°C° 0 mm 2 mps 699 mmHg 26%
14:00 +33°C° 0 mm 3 mps 699 mmHg 24%
15:00 +33°C° 0 mm 3 mps 699 mmHg 24%
16:00 +33°C° 0 mm 3 mps 699 mmHg 24%
17:00 +33°C° 0 mm 4 mps 699 mmHg 24%
18:00 +30°C° 0 mm 3 mps 699 mmHg 28%
19:00 +27°C° 0 mm 2 mps 699 mmHg 33%
20:00 +25°C° 0 mm 2 mps 698 mmHg 37%
21:00 +24°C° 0 mm 2 mps 698 mmHg 39%
22:00 +21°C° 0 mm 2 mps 698 mmHg 41%
23:00 +20°C° 0 mm 2 mps 698 mmHg 43%
Show more

We Need Your Consent

Meteoprog and our Service Providers may store and access personal data such as cookies, device identifiers or other similar technologies on your device and process such data to personalise content and ads, as well as provide social media features and to analyse the traffic.

  • Store and/or access information on your device

    Cookies, device identifiers or other information can be stored or accessed on your device for the purposes indicated above.

  • Personalised ads and content, ad and content measurement, audience insights, and products development

    Ads and content can be personalised based on a profile. More data can be added to better personalise ads and content. Ad and content performance can be measured. Insights about the audience who saw the ads and content can be derived. Such data can be used to develop or improve user’s experience, systems and software.

By clicking ‘I Agree’ you will allow the use of indicated cookies, device identifiers, web beacons or other similar technologies. Your settings can be changed in the browser on your device.

For certain purposes, legitimate interests may be relied on, rather than consent. You can read more about this in our Privacy and Cookie Policy.